sat.trackr.live / text

‹ back to catalog

ARSAT 1

NORAD 40272 · 2014-062B

PAYLOAD ACTIVE UNKNOWN

§ Identity

Operator
Country
ARGN
Launch date
2014-10-16
Launch site
FRGUI
Launch vehicle
Mass (kg)
RCS (m²)
85.74

Purposes: comms

External: N2YO · Heavens-Above · Gunter

§ Orbital elements

Epoch: 2026-09-14T22:00:56.511072Z

Period
1,436.10 min
Inclination
0.0253°
Eccentricity
0.0001654
Mean motion
1.00271897 rev/d
Perigee alt
35,779.6 km
Apogee alt
35,793.5 km
Semi-major
42,164.7 km
B*
0.0000e+0
RAAN
65.4737°
Arg perigee
92.2911°
Mean anomaly
94.5617°
Rev number
4,352

§ Raw data

ARSAT 11 40272U 14062B   26257.91732073 -.00000267  00000+0  00000+0 0  99962 40272   0.0253  65.4737 0001654  92.2911  94.5617  1.00271897 43520

JSON: /api/v1/satellites/40272 · /tle

For live sub-satellite position, see the globe view (requires WebGL).

§ Visibility from observer

Set your observer location to see the next 7 days of passes ≥ 10°. The values pass through the URL so the page stays shareable.

No JS? Fill the form by hand. The geolocation button needs JavaScript.